This is the latest recevied weather packets stored in our database for station/object KW6V-15. If no packets are shown the sender has not sent any weather packets the latest 10 day(s).
| Time | Temp. | Humidity | Pressure | Rain* | Wind** | Luminosity | Snow |
|---|---|---|---|---|---|---|---|
| 1777660237 | 17.78° C | 75% | 1015.5 hPa | 0 mm | - | - | - |
| 1777658480 | 16.67° C | 79% | 1015.5 hPa | 0 mm | - | - | - |
| 1777656635 | 16.11° C | 80% | 1015.5 hPa | 0 mm | - | - | - |
| 1777654825 | 14.44° C | 82% | 1015.7 hPa | 0 mm | - | - | - |
| 1777653020 | 15° C | 81% | 1015.5 hPa | 0 mm | - | - | - |
| 1777651222 | 14.44° C | 83% | 1015.5 hPa | 0 mm | - | - | - |
| 1777649423 | 12.22° C | 90% | 1015.5 hPa | 0 mm | - | - | - |
| 1777647689 | 11.67° C | 92% | 1015.3 hPa | 0 mm | - | - | - |
| 1777645821 | 10.56° C | 92% | 1015.1 hPa | 0 mm | - | - | - |
| 1777644055 | 10.56° C | 92% | 1014.5 hPa | 0 mm | - | - | - |
| 1777642855 | 10.56° C | 92% | 1014.4 hPa | 0 mm | - | - | - |
| 1777640429 | 10.56° C | 92% | 1014.4 hPa | 0 mm | - | - | - |
| 1777638630 | 10.56° C | 92% | 1014.5 hPa | 0 mm | - | - | - |
| 1777636813 | 10.56° C | 92% | 1014.5 hPa | 0 mm | - | - | - |
| 1777635039 | 11.11° C | 92% | 1014.7 hPa | 0 mm | - | - | - |
| 1777633230 | 11.11° C | 92% | 1014.8 hPa | 0 mm | - | - | - |
| 1777631517 | 11.11° C | 92% | 1014.7 hPa | 0 mm | - | - | - |
| 1777629636 | 11.11° C | 91% | 1014.8 hPa | 0 mm | - | - | - |
| 1777627834 | 11.11° C | 91% | 1014.9 hPa | 0 mm | - | - | - |
| 1777624250 | 10.56° C | 91% | 1015.4 hPa | 0 mm | - | - | - |
| 1777622423 | 10.56° C | 90% | 1015.5 hPa | 0 mm | - | - | - |
| 1777620624 | 10.56° C | 90% | 1015.3 hPa | 0 mm | - | - | - |
| 1777618835 | 11.11° C | 90% | 1015.2 hPa | 0 mm | - | - | - |
| 1777617022 | 11.11° C | 89% | 1015.4 hPa | 0 mm | - | - | - |
| 1777615225 | 11.67° C | 89% | 1015.4 hPa | 0 mm | - | - | - |
* Rain latest hour (hover to see other rain measurements)
** Current wind speed in m/s (hover to see current wind gust speed)